Back to catalog

SL-8 R/B

AlivePO
NORAD 17067·ROCKET BODY·🇷🇺 Russia

Launched Nov 13, 1986 from Plesetsk Cosmodrome

Loading…

Next Passes (next 24 hours)

TLE

FreshSource: Space-Track

Epoch: Sep 14, 2026, 16:43 UTC

1 17067U 86086B   26257.69694828  .00000075  00000-0  58929-4 0  9992
2 17067  82.9467 158.4289 0032962 228.8147 158.5731 13.78106588  2683

Track SL-8 R/B in real time with AllMySat

Download on the App Store